TimeAKST,TemperatureF,Dew PointF,Humidity,Sea Level PressureIn,VisibilityMPH,Wind Direction,Wind SpeedMPH,Gust SpeedMPH,PrecipitationIn,Events,Conditions,WindDirDegrees,DateUTC
12:53 AM,30.9,30.0,96,29.64,8.0,Calm,Calm,-,N/A,,Overcast,0,2013-01-05 09:53:00
1:53 AM,30.9,30.0,96,29.60,9.0,Calm,Calm,-,N/A,,Overcast,0,2013-01-05 10:53:00
2:53 AM,30.9,30.0,96,29.58,10.0,Calm,Calm,-,N/A,,Overcast,0,2013-01-05 11:53:00
3:53 AM,32.0,30.9,96,29.55,10.0,South,3.5,-,N/A,,Overcast,190,2013-01-05 12:53:00
4:53 AM,32.0,30.9,96,29.52,9.0,Calm,Calm,-,0.00,,Overcast,0,2013-01-05 13:53:00
5:53 AM,33.1,32.0,96,29.47,10.0,Calm,Calm,-,0.00,,Overcast,0,2013-01-05 14:53:00
6:16 AM,32.0,30.2,93,29.46,9.0,Calm,Calm,-,0.00,Rain,Light Freezing Rain,0,2013-01-05 15:16:00
6:33 AM,33.8,32.0,93,29.45,9.0,Calm,Calm,-,0.00,,Overcast,0,2013-01-05 15:33:00
6:53 AM,33.1,30.9,92,29.44,10.0,Calm,Calm,-,0.00,,Overcast,0,2013-01-05 15:53:00
7:41 AM,33.8,32.0,93,29.41,7.0,Calm,Calm,-,0.00,Rain,Light Rain,0,2013-01-05 16:41:00
7:53 AM,33.1,32.0,96,29.40,7.0,Calm,Calm,-,0.00,Rain,Light Rain,0,2013-01-05 16:53:00
8:53 AM,33.1,32.0,96,29.37,4.0,Calm,Calm,-,0.03,Rain,Light Rain,0,2013-01-05 17:53:00
9:53 AM,33.1,32.0,96,29.35,4.0,Calm,Calm,-,0.04,Rain,Light Rain,0,2013-01-05 18:53:00
10:53 AM,33.1,32.0,96,29.32,4.0,Calm,Calm,-,0.03,Rain,Light Rain,0,2013-01-05 19:53:00
11:53 AM,33.1,32.0,96,29.29,5.0,Calm,Calm,-,0.01,Rain,Light Rain,0,2013-01-05 20:53:00
12:53 PM,33.1,32.0,96,29.26,7.0,Calm,Calm,-,0.01,Rain,Light Rain,0,2013-01-05 21:53:00
1:42 PM,33.8,32.0,93,29.24,3.0,Calm,Calm,-,0.01,Rain,Light Rain,0,2013-01-05 22:42:00
1:53 PM,33.1,32.0,96,29.23,3.0,Calm,Calm,-,0.02,Rain,Rain,0,2013-01-05 22:53:00
2:24 PM,33.8,32.0,93,29.22,2.5,Calm,Calm,-,0.02,Rain,Light Rain,0,2013-01-05 23:24:00
2:34 PM,33.8,32.0,93,29.22,1.5,Calm,Calm,-,0.02,Rain,Light Rain,0,2013-01-05 23:34:00
2:44 PM,33.8,32.0,93,29.21,2.5,Calm,Calm,-,0.03,Rain,Light Rain,0,2013-01-05 23:44:00
2:53 PM,33.1,32.0,96,29.21,4.0,Calm,Calm,-,0.03,Rain,Light Rain,0,2013-01-05 23:53:00
3:09 PM,33.8,32.0,93,29.21,2.0,South,4.6,-,0.01,Rain,Light Rain,180,2013-01-06 00:09:00
3:22 PM,33.8,33.8,100,29.21,3.0,Calm,Calm,-,0.02,Rain,Light Rain,0,2013-01-06 00:22:00
3:53 PM,33.1,32.0,96,29.21,3.0,Calm,Calm,-,0.03,Rain,Light Rain,0,2013-01-06 00:53:00
4:01 PM,33.8,32.0,93,29.20,2.5,Calm,Calm,-,0.00,Rain,Light Rain,0,2013-01-06 01:01:00
4:09 PM,33.8,32.0,93,29.20,4.0,Calm,Calm,-,0.01,Rain,Light Rain,0,2013-01-06 01:09:00
4:50 PM,33.8,32.0,93,29.20,8.0,Calm,Calm,-,0.02,Rain,Light Rain,0,2013-01-06 01:50:00
4:53 PM,33.1,32.0,96,29.20,8.0,Calm,Calm,-,0.02,Rain,Light Rain,0,2013-01-06 01:53:00
5:33 PM,33.8,32.0,93,29.21,5.0,Calm,Calm,-,0.00,Rain,Light Rain,0,2013-01-06 02:33:00
5:53 PM,33.1,32.0,96,29.21,3.0,Calm,Calm,-,0.01,Rain,Light Rain,0,2013-01-06 02:53:00
6:53 PM,33.1,32.0,96,29.23,6.0,Calm,Calm,-,0.03,Snow,Light Snow,0,2013-01-06 03:53:00
7:53 PM,33.1,32.0,96,29.24,7.0,Calm,Calm,-,0.02,Rain,Light Rain,0,2013-01-06 04:53:00
8:53 PM,33.1,32.0,96,29.24,4.0,Calm,Calm,-,0.01,Rain,Light Rain,0,2013-01-06 05:53:00
9:53 PM,33.1,32.0,96,29.26,5.0,Calm,Calm,-,0.02,Rain,Light Rain,0,2013-01-06 06:53:00
10:29 PM,33.8,32.0,93,29.26,6.0,Calm,Calm,-,0.00,Rain,Light Rain,0,2013-01-06 07:29:00
10:46 PM,33.8,32.0,93,29.26,7.0,Calm,Calm,-,0.01,Rain,Light Rain,0,2013-01-06 07:46:00
10:53 PM,33.1,32.0,96,29.27,6.0,Calm,Calm,-,0.01,Rain,Light Rain,0,2013-01-06 07:53:00
11:53 PM,33.1,32.0,96,29.29,5.0,Calm,Calm,-,0.00,,Overcast,0,2013-01-06 08:53:00